Location: Arcones
(41.1182°N, 3.7238°W)
Time: 04:46:13
(UTC+00:00)

IRAS Rocket - Pass Details

Date: 16 March 2026
Orbit: 845 x 876 km, 100.1° (Epoch: 15 April)

Event Time Altitude Azimuth Distance (km) Brightness Sun altitude
Rises 20:02:22 0° 172° (S) 3,452 7.1 -19.4°
Reaches altitude 10° 20:04:46 10° 175° (S) 2,516 6.5 -19.8°
Maximum altitude 20:10:19 64° 257° (WSW) 963 4.6 -20.8°
Drops below altitude 10° 20:15:52 10° 338° (NNW) 2,517 7.2 -21.8°
Sets 20:18:16 0° 342° (NNW) 3,453 7.9 -22.3°
